Regional Weather Roundup
Issued by NWS

Home | Current Version | Previous Version | Graphics & Text | Print | Product List | Glossary On
Versions: 1 2 3 4 5 6 7 8 9 10 11 12 13 14 15 16 17 18 19 20 21 22 23 24 25 26 27 28 29 30 31 32 33 34 35 36 37 38 39 40 41 42 43 44 45 46 47 48 49 50
220
ASUS43 KLOT 250608
RWRIL

ILLINOIS REGIONAL WEATHER ROUNDUP
NATIONAL WEATHER SERVICE CHICAGO/ROMEOVILLE IL
100 AM CDT TUE APR 25 2017

NOTE: "FAIR" INDICATES FEW OR NO CLOUDS BELOW 12,000 FEET WITH NO
SIGNIFICANT WEATHER AND/OR OBSTRUCTIONS TO VISIBILITY.

* THESE STATIONS ARE NOT UNDER NWS QUALITY CONTROL. THEY ALSO MAY NOT
  REPORT WEATHER SUCH AS PRECIPITATION OR FOG.

ILZ001-002-007-009-015-016-024-250700-
NORTHWEST ILLINOIS

CITY           SKY/WX    TMP DP  RH WIND       PRES   REMARKS
MOLINE         CLEAR     49  35  58 SE7       29.67F
6HR MIN TEMP:  49; 6HR MAX TEMP:  72;

STERLING*      PTCLDY    58  35  42 SE6       29.71R
SAVANNA*       PTCLDY    58  33  38 SE8       29.69S
$$

ILZ003-004-008-010-011-017-018-250700-
NORTH CENTRAL ILLINOIS

CITY           SKY/WX    TMP DP  RH WIND       PRES   REMARKS
ROCKFORD       CLOUDY    59  35  40 SE13      29.73S
6HR MIN TEMP:  58; 6HR MAX TEMP:  72;

FREEPORT*      CLOUDY    55  36  49 SE6       29.73S
ROCHELLE*      CLEAR     55  37  50 SE9       29.72S
DE KALB*       CLOUDY    56  37  48 SE9       29.73F
PERU*          CLEAR     55  35  46 S6        29.73R
$$

ILZ005-006-012>014-019>023-250700-
NORTHEAST ILLINOIS

CITY           SKY/WX    TMP DP  RH WIND       PRES   REMARKS
CHICAGO-OHARE  PTCLDY    56  38  50 SE10      29.74F
6HR MIN TEMP:  51; 6HR MAX TEMP:  66;

CHICAGO-MIDWAY CLEAR     60  39  45 SE13      29.75F
6HR MIN TEMP:  58; 6HR MAX TEMP:  66;

AURORA         PTCLDY    54  38  54 SE6       29.73F
6HR MIN TEMP:  53; 6HR MAX TEMP:  70;

LANSING*       CLEAR     56  42  57 SE9       29.76S
JOLIET*        CLEAR     58  40  50 SE8       29.73F
WAUKEGAN       CLEAR     56  36  47 SE12      29.75F
6HR MIN TEMP:  45; 6HR MAX TEMP:  56;

DUPAGE AIRPORT CLEAR     57  39  51 SE10      29.73F
6HR MIN TEMP:  53; 6HR MAX TEMP:  69;

KANKAKEE*      CLEAR     55  40  57 E8        29.75F
WHEELING       CLEAR     58  39  49 SE10      29.75F
6HR MIN TEMP:  48; 6HR MAX TEMP:  62;

MORRIS*        CLEAR     58  39  47 SE14      29.72S
ROMEOVILLE*    CLEAR     56  43  61 SE10      29.74F
NORTHERLY ISL    N/A     52  45  77 SE2         N/A
$$

LMZ740>746-250700-
SOUTHERN LAKE MICHIGAN

STATION/POSITION SKY/WX   TEMP    WIND        PRES    VSBY  WAVE
                          AIR SEA DIR/SP/G                  HT/PER
                          (F)     (DEG/KT/KT) (MB)    (MI)  (FT/S)
SOUTHERN BUOY              47 41  100/  8/  8 1009.2          1
HARRISON CRIB              53     150/  8/  9   N/A
BURNHAM HARBOR             52     130/  3/  4   N/A
CALUMET HARBOR             60     110/ 10/ 13 1007.2F
BURNS HARBOR               60     120/ 13/ 23 1008.1F
MICHIGAN CITY              59     120/  9/ 11   N/A
ST. JOSEPH                 56 50  140/ 12/ 14 1009.0          1
$$

ILZ025>027-034>036-040-047-049-050-058-095>099-250700-
WEST-CENTRAL ILLINOIS

CITY           SKY/WX    TMP DP  RH WIND       PRES   REMARKS
QUINCY         PTCLDY    56  37  49 SE8       29.67S
GALESBURG*     CLEAR     55  32  41 E3        29.68F
MACOMB*        CLEAR     53  31  42 SE6       29.70F
JACKSONVILLE*  CLEAR     60  35  38 S8        29.70S
PITTSFIELD*    PTCLDY    57  38  49 SE6       29.69F
$$

ILZ028>032-037-038-041>044-048-051>054-059>061-250700-
CENTRAL ILLINOIS

CITY           SKY/WX    TMP DP  RH WIND       PRES   REMARKS
PONTIAC        CLEAR     53  39  59 SE6       29.73S
BLOOMINGTON    CLEAR     57  36  45 SE8       29.73F
DECATUR        CLEAR     53  37  54 CALM      29.73S
PEORIA         CLEAR     58  32  37 S5        29.71S
6HR MIN TEMP:  58; 6HR MAX TEMP:  74;

LACON*         CLEAR     58  34  40 SE6       29.70S
LINCOLN*       PTCLDY    50  35  57 CALM      29.72S
SPRINGFIELD    CLEAR     56  35  45 S9        29.71F
6HR MIN TEMP:  56; 6HR MAX TEMP:  74;

TAYLORVILLE    CLEAR     50  38  63 S5        29.73S
6HR MIN TEMP:  49; 6HR MAX TEMP:  71;

$$

ILZ033-039-045-046-055>057-062-063-250700-
EAST-CENTRAL ILLINOIS

CITY           SKY/WX    TMP DP  RH WIND       PRES   REMARKS
CHAMPAIGN      CLEAR     54  37  52 E6        29.73S
RANTOUL*       CLEAR     57  40  52 CALM      29.74R
MATTOON        CLEAR     58  44  60 S5        29.73R
PARIS*         CLEAR     59  47  65 SE7       29.75S
$$

ILZ079-100>102-250700-
SOUTHWEST ILLINOIS

CITY           SKY/WX    TMP DP  RH WIND       PRES   REMARKS
ALTON          CLEAR     55  38  52 E3        29.72S
BELLEVILLE     CLEAR     54  44  68 CALM      29.72R
CAHOKIA*       CLEAR     53  41  63 CALM      29.72S
SPARTA*        CLEAR     59  45  58 S3        29.75R
$$

ILZ064>066-069>071-074>076-080>082-084>086-088>090-092>094-250700-
SOUTH-CENTRAL ILLINOIS

CITY           SKY/WX    TMP DP  RH WIND       PRES   REMARKS
CARBONDALE     CLEAR     52  50  93 CALM      29.74R
6HR MIN TEMP:  51; 6HR MAX TEMP:  71;

CAIRO*         CLEAR     60  55  85 S6        29.75S
EFFINGHAM*     CLEAR     48  45  88 CALM      29.75R
MARION         CLEAR     57  52  82 S3        29.74S
MT. VERNON     CLEAR     46  46 100 CALM      29.74S
CENTRALIA*     CLEAR     56  46  69 S8        29.73S
SALEM*         CLEAR     54  45  70 S3        29.74R
METROPOLIS*    CLEAR     60  56  85 S7        29.76S
$$

ILZ067-068-072-073-078-083-087-091-250700-
SOUTHEAST ILLINOIS

CITY           SKY/WX    TMP DP  RH WIND       PRES   REMARKS
LAWRENCEVILLE  CLEAR     60  52  74 S10       29.74F
FLORA*         CLEAR     50  47  87 CALM      29.74S
FAIRFIELD*     CLEAR     53  46  75 CALM      29.73S
HARRISBURG*    CLEAR     53  51  92 CALM      29.75S
ROBINSON*      CLEAR     57  48  72 S7        29.75S
CARMI*         CLEAR     52  49  90 S3        29.74S
$$

ABBREVIATIONS USED IN REMARKS
   TC - TEMPERATURE IN CELSIUS
  WCI - WIND CHILL INDEX
   HX - HEAT INDEX
  VSB - VISIBILITY
$$





USA.gov is the U.S. government's official web portal to all federal, state and local government web resources and services.